Flag for U.S.A. Weather past 2 weeks in Naples, Florida, U.S.A.

Now
86 °F

Broken clouds.


Feels Like: 93 °F
Forecast: 77 / 89 °F
Wind: 9 mph from Northwest

Location: Naples Municipal

Current Time: May 22, 2015 at 6:32:11 PM

Latest Report: May 22, 2015 at 5:53 PM


Visibility: 10 mi

Pressure: 30.08 "Hg

Humidity: 65%

Dew point: 73 °F

Location of NaplesLocation

Historic Weather in Naples — Graph

°F

Naples temperature yesterday

Maximum temperature yesterday: 87 °F (at 12:53 PM)
Minimum temperature yesterday: 78 °F (at 5:53 AM)
Average temperature yesterday: 83 °F

Past Weeks' High & Low Weather Summary

 TemperatureHumidityPressure
High91 °F (May 10, 12:53 PM)97% (May 12, 2:53 AM)30.18 "Hg (May 12, 2:53 AM)
Low69 °F (May 10, 6:53 AM)36% (May 9, 12:53 PM)29.94 "Hg (May 20, 6:53 PM)
Average79 °F74%30.07 "Hg
* Reported May 7 4:53 PM — May 22 4:53 PM, Naples, Weather by CustomWeather, © 2015

Note: Actual official high and low records may vary slightly from our data, if they occured in-between our weather recording intervals... More about our weather records

Advertising

Naples weather history for previous 24 hours

 ConditionsComfort  
Time TempWeatherWind HumidityBarometerVisibility
4:53 PM
Fri, May 22
87 °FSunny.13 mph63%30.05 "Hg10 mi
3:53 PM88 °FSunny.16 mph63%30.05 "Hg10 mi
2:53 PM88 °FSunny.16 mph63%30.07 "Hg10 mi
1:53 PM88 °FScattered clouds.13 mph61%30.08 "Hg10 mi
12:53 PM87 °FScattered clouds.12 mph65%30.08 "Hg10 mi
11:53 AM88 °FPassing clouds.8 mph63%30.08 "Hg10 mi
10:53 AM87 °FPassing clouds.6 mph57%30.08 "Hg10 mi
9:53 AM84 °FPassing clouds.7 mph67%30.08 "Hg10 mi
8:53 AM83 °FPassing clouds.7 mph74%30.07 "Hg10 mi
7:53 AM80 °FSunny.3 mph81%30.06 "Hg10 mi
6:53 AM78 °FClear.3 mph87%30.04 "Hg10 mi
5:53 AM78 °FClear.3 mph87%30.02 "Hg10 mi
4:53 AM79 °FClear.5 mph84%30.01 "Hg10 mi
3:53 AM80 °FPassing clouds.3 mph81%30.01 "Hg10 mi
2:53 AM80 °FClear.3 mph81%30.01 "Hg10 mi
1:53 AM80 °FPassing clouds.6 mph79%30.03 "Hg10 mi
12:53 AM81 °FPassing clouds.5 mph77%30.04 "Hg10 mi
11:53 PM
Thu, May 21
81 °FPassing clouds.7 mph77%30.03 "Hg10 mi
10:53 PM81 °FClear.6 mph74%30.01 "Hg10 mi
9:53 PM81 °FClear.8 mph72%29.99 "Hg10 mi
8:53 PM82 °FSunny.8 mph72%29.98 "Hg10 mi
7:53 PM83 °FSunny.7 mph68%29.97 "Hg10 mi
6:53 PM85 °FSunny.10 mph63%29.96 "Hg10 mi
Weather by CustomWeather, © 2015

See weather overviewHow to use our weather pages